Temperature
17 17 17 17 18 18 20 22 24 24 24 25 25 25 24 23 22 20 18 18 18 18 18 18 18 18 17 17 17 17 17 16 16 16 16 16 16 16 16 16 16 15 15 15 15 15 15 15 15
16 16 17 18 18 19 20 22 23 23 24 24 24 24 24 22 20 19 18 18 18 18 18 18 17 17 17 17 17 17 17 16 16 16 16 16 16 16 16 16 15 15 15 15 15 15 15 15 15
16 16 17 18 19 19 21 22 22 23 24 23 23 23 22 21 19 18 18 17 17 17 18 17 17 17 17 17 17 17 16 16 16 16 16 16 16 16 15 15 15 15 15 15 15 15 15 15 15
15 16 17 18 19 21 22 22 22 23 23 23 23 22 20 19 18 18 17 17 17 17 17 17 17 17 17 17 17 16 16 16 16 16 16 16 16 15 15 15 15 15 15 15 15 15 15 15 15
15 17 17 17 19 21 21 22 23 22 22 22 22 21 19 18 18 18 17 17 16 16 17 17 17 16 16 16 16 16 16 16 16 16 16 15 15 15 15 15 15 15 15 15 15 15 15 15 14
15 17 17 17 19 21 21 22 22 21 21 21 21 20 18 18 18 17 17 17 16 16 16 17 16 16 16 16 16 16 16 16 16 15 15 15 15 15 15 15 15 15 15 15 15 15 15 14 14
15 16 17 18 19 20 21 21 21 20 20 21 20 19 18 17 17 17 16 16 16 16 16 16 16 16 16 16 16 16 16 15 15 15 15 15 15 15 15 15 15 15 15 15 15 14 14 14 14
14 15 17 18 19 19 20 20 20 20 19 20 19 18 17 16 16 16 16 16 16 15 15 16 15 15 15 15 15 15 15 15 15 15 15 15 15 15 15 14 14 14 14 14 14 14 14 14 14
14 14 15 17 18 18 19 19 19 19 19 19 18 18 17 16 16 16 16 16 15 15 15 15 15 15 15 15 15 15 15 15 15 15 15 15 14 14 14 14 14 14 14 14 14 14 14 14 13
13 13 15 17 18 18 18 18 18 18 18 18 17 16 16 16 15 15 15 15 15 15 15 15 15 15 15 15 15 15 15 15 15 15 15 14 14 14 14 14 14 14 14 14 14 14 14 13 13
13 13 15 16 16 16 17 17 18 17 16 17 16 15 15 15 15 15 14 14 14 14 14 14 14 14 14 14 14 14 14 14 14 14 14 14 14 14 14 14 14 14 14 14 13 13 13 13 13
13 14 15 15 15 15 16 16 16 16 16 16 16 15 15 15 14 14 14 14 14 14 14 14 14 14 14 14 14 14 14 14 14 14 14 14 14 14 14 14 13 13 13 13 13 13 13 12 12
13 13 14 14 14 14 14 15 15 15 16 16 15 15 15 14 14 14 14 14 14 14 14 14 14 14 14 14 14 14 14 14 14 14 14 14 14 13 13 13 13 13 13 13 13 12 12 12 12
13 13 13 13 14 14 14 14 14 15 15 15 15 14 14 14 14 14 14 13 14 14 14 14 14 13 14 13 14 14 14 14 14 14 14 14 14 13 13 13 13 13 13 12 12 12 12 12 12
13 12 12 13 13 14 13 13 14 14 15 14 14 14 14 14 13 13 13 13 13 13 13 13 13 13 13 13 13 13 13 14 13 14 13 14 13 13 13 13 13 13 12 12 12 12 12 12 12
12 12 11 13 13 13 13 12 13 14 14 14 14 14 14 14 13 13 13 13 13 13 13 13 13 13 13 13 13 13 13 13 13 13 13 13 13 13 13 13 13 12 12 12 12 12 11 12 11
11 11 11 12 13 13 12 12 13 14 14 14 14 13 13 13 13 13 12 13 13 13 13 13 12 13 13 13 13 13 13 13 13 13 13 13 13 13 13 13 13 12 12 12 12 11 11 11 11
10 11 11 12 13 12 11 11 12 13 13 13 13 13 13 12 12 12 12 12 12 12 12 12 12 12 12 12 12 13 13 13 13 13 13 13 13 13 13 13 13 12 12 12 11 11 11 11 11
10 10 10 11 12 11 11 11 12 12 12 12 12 12 12 12 12 12 12 12 12 12 12 12 12 12 12 12 12 12 12 12 12 13 13 13 13 13 13 13 12 12 12 12 11 11 11 11 10
10 9 10 11 12 11 10 10 11 12 12 12 12 12 12 12 12 11 11 11 11 11 11 11 11 12 12 12 12 12 12 12 12 12 12 12 12 12 12 12 12 12 12 11 11 11 11 11 10
10 9 9 9 10 10 10 10 11 11 11 11 11 11 11 11 11 11 11 11 11 11 11 11 11 11 11 11 11 11 11 12 12 12 12 12 12 12 12 12 12 12 11 11 11 11 11 10 10
9 10 10 10 8 8 10 9 10 10 10 11 11 11 10 10 11 10 10 10 10 10 10 10 11 11 11 11 11 11 11 11 11 11 12 12 12 12 12 12 12 11 11 11 11 11 11 10 10
9 10 9 9 9 8 9 8 9 11 10 10 10 10 10 10 10 10 10 10 10 10 10 10 10 10 10 11 11 11 11 11 11 11 11 11 11 11 11 11 11 11 11 11 11 10 10 10 10
9 9 9 9 8 7 9 9 9 10 10 10 9 10 9 9 9 9 9 9 9 9 9 9 9 10 10 10 10 10 11 10 10 10 11 11 11 11 11 11 11 11 11 11 10 10 10 10 10
8 7 7 7 7 8 10 9 9 9 9 9 9 9 9 8 8 8 9 9 9 9 9 9 9 9 9 10 10 10 10 10 10 10 10 10 10 10 10 10 10 10 10 10 10 10 10 9 9
7 7 6 6 7 8 9 8 8 9 9 9 8 8 8 8 7 8 8 8 8 8 8 8 9 9 9 9 9 10 10 10 10 10 10 10 10 10 10 10 10 10 10 10 10 9 9 9 9
7 6 7 6 7 7 8 9 8 8 7 7 7 7 7 7 7 7 7 7 8 8 8 8 8 8 9 9 9 9 9 9 9 9 9 9 10 10 9 9 9 9 9 9 9 9 9 8 8
7 7 6 6 6 6 8 8 7 6 6 6 6 6 6 6 6 6 6 6 7 7 7 7 8 8 8 8 8 8 9 9 9 9 9 9 9 9 9 9 9 9 9 9 9 8 8 8 8
6 6 6 6 6 6 6 7 7 7 6 5 5 5 5 5 5 5 5 5 6 6 7 7 7 7 8 8 8 8 8 8 8 8 8 8 8 8 8 8 8 8 8 8 8 8 7 7 7
6 6 5 5 5 6 5 6 7 6 6 6 5 4 4 4 4 4 4 5 5 6 6 6 7 7 7 7 7 7 7 8 8 8 8 8 8 8 8 8 8 8 7 7 7 7 7 7 7
Wind_Speed
13 13 8 3 3 5 9 6 4 1 0 3 4 3 4 5 4 7 5 8 11 13 15 15 15 16 15 15 15 14 13 13 13 13 13 13 13 14 14 14 15 15 15 15 15 15 15 16 15
12 9 5 4 5 7 7 6 4 1 2 3 3 3 3 5 7 7 6 8 11 12 14 15 15 16 15 15 14 14 14 13 13 13 13 13 14 14 14 14 15 15 15 15 15 15 15 15 14
11 9 4 4 6 8 5 2 2 1 4 2 2 3 3 5 6 5 6 9 10 10 13 15 16 16 16 15 14 14 14 13 14 13 13 13 13 14 14 14 14 14 14 15 14 14 14 14 13
5 4 4 6 11 8 5 1 1 3 4 3 2 3 4 5 4 6 7 8 10 10 13 15 16 16 15 15 14 14 14 14 14 14 13 13 13 13 14 13 13 14 14 14 14 14 13 13 12
4 4 6 9 12 8 4 1 0 2 3 3 1 2 4 5 8 8 7 8 9 10 12 15 15 15 15 15 14 14 13 13 13 14 14 13 13 13 13 13 13 13 13 13 13 13 13 12 11
4 4 6 11 11 8 4 2 1 1 2 3 1 1 3 5 7 5 6 7 8 9 12 14 15 14 13 14 14 14 14 13 13 13 14 13 13 13 13 13 13 13 12 12 12 12 12 11 10
4 4 9 10 8 7 4 2 1 1 0 1 1 0 4 5 5 4 5 6 8 10 10 11 12 13 13 13 14 14 14 13 13 13 14 13 13 13 13 13 12 12 12 12 11 11 11 10 9
4 4 8 10 8 5 2 1 1 1 1 3 3 1 3 3 4 4 4 5 7 8 8 8 10 11 11 11 13 14 14 14 13 13 14 14 14 13 13 13 12 12 12 12 11 11 10 9 8
3 4 7 7 5 3 1 1 2 2 1 2 3 3 4 6 5 4 4 4 5 6 6 7 8 8 9 10 11 13 13 13 13 13 14 13 11 12 12 13 12 12 12 12 11 10 10 9 7
2 5 6 4 3 3 2 1 1 1 0 1 3 5 5 4 4 4 4 4 4 4 5 5 6 7 8 9 10 10 11 12 12 12 12 11 10 11 12 13 13 12 12 11 10 10 8 6 5
4 5 4 4 6 5 4 3 1 1 2 1 2 4 4 3 3 4 4 4 4 4 4 5 5 6 6 6 7 7 8 9 10 11 11 10 10 11 11 10 10 10 10 9 9 7 5 5 5
4 6 6 5 6 5 5 4 3 2 3 1 1 3 3 3 3 3 3 4 3 4 3 4 5 5 5 5 5 6 6 6 6 9 10 8 6 7 8 7 9 8 7 7 7 5 5 5 5
5 4 6 5 5 4 5 5 4 4 2 1 1 3 3 2 2 2 1 2 3 3 4 4 4 5 4 3 3 4 5 5 6 7 9 8 5 5 6 6 7 7 7 6 4 4 4 4 4
3 3 4 4 5 4 5 6 4 4 1 2 2 3 3 2 2 2 1 2 3 3 4 3 4 5 5 3 3 3 4 5 6 6 8 9 7 6 5 5 5 5 6 6 5 4 4 3 4
4 3 4 5 6 3 3 6 4 4 2 3 3 3 3 2 2 2 2 2 3 3 3 3 4 4 5 4 3 3 3 5 5 5 8 10 9 7 6 5 4 5 6 6 5 5 5 3 3
5 5 4 3 5 5 4 5 3 2 2 3 3 2 2 1 1 1 1 1 1 2 2 2 2 3 4 3 3 3 3 4 4 5 7 9 10 9 6 5 4 6 6 5 3 3 3 3 2
4 5 4 3 4 2 3 4 3 2 2 2 3 2 1 0 0 0 1 1 1 1 2 2 2 3 3 3 2 3 3 3 4 5 6 8 10 10 7 5 6 7 5 4 3 3 3 3 2
4 4 3 3 1 1 4 6 5 2 1 1 1 1 1 1 1 1 1 1 1 1 2 1 1 2 3 3 2 1 2 2 3 4 5 7 8 9 7 6 6 6 5 4 4 4 3 3 3
4 4 5 5 2 3 6 6 5 2 2 2 2 1 1 1 0 0 1 1 0 1 1 1 1 2 2 3 3 3 3 3 3 3 5 7 8 8 7 5 6 5 5 5 5 4 4 3 3
5 5 6 4 2 3 5 8 5 4 3 3 2 2 1 1 0 0 0 0 1 0 1 2 2 2 3 3 3 3 3 3 3 3 4 7 8 8 7 6 6 5 4 5 5 5 3 3 3
5 4 4 4 5 4 4 6 6 4 3 3 2 2 2 2 1 1 0 0 1 1 1 2 2 2 2 2 3 2 2 2 2 3 4 5 7 8 7 7 6 5 5 5 6 5 5 4 3
4 3 4 4 3 3 3 5 6 5 4 4 3 2 2 2 1 1 1 1 1 2 2 2 2 2 2 3 3 4 4 4 3 3 3 4 5 6 7 7 6 5 5 5 5 4 3 5 4
3 4 5 5 5 4 5 5 5 5 5 4 2 1 2 1 1 2 2 2 2 2 1 2 2 3 3 3 4 5 4 3 3 4 4 4 4 5 7 7 6 5 5 5 5 4 4 4 4
4 4 4 4 3 5 7 6 5 3 4 2 0 1 2 2 2 2 2 2 2 2 1 2 2 3 3 4 4 4 4 5 6 5 5 4 4 4 6 6 6 5 5 5 5 5 5 4 3
2 1 1 1 2 4 3 4 3 1 2 1 1 1 2 2 3 3 3 3 2 2 2 2 2 3 3 4 4 4 4 6 7 7 6 5 4 4 7 6 6 6 5 5 4 4 5 4 4
2 1 0 1 2 3 2 4 1 3 4 6 5 4 3 4 4 4 4 4 3 2 2 2 3 3 3 4 4 3 3 3 4 5 5 5 4 4 6 6 6 6 6 5 5 4 4 4 4
1 1 2 3 4 3 4 3 1 3 5 7 7 7 7 6 6 7 6 5 5 3 3 3 3 3 3 3 3 3 3 3 4 4 5 4 4 4 5 6 6 6 6 6 5 4 4 4 3
1 2 1 1 2 3 4 4 2 1 3 5 7 7 7 8 7 7 7 6 5 5 4 3 3 3 2 3 3 3 3 3 3 4 5 4 5 4 5 5 6 6 6 6 5 4 4 4 3
1 1 1 2 3 2 3 2 2 2 1 3 5 6 7 7 7 7 7 7 6 5 4 3 2 1 1 2 2 2 2 2 3 3 4 5 4 5 5 5 5 6 6 6 6 5 5 5 4
2 2 2 2 4 3 3 4 2 4 4 4 5 6 6 6 6 7 7 7 6 5 5 4 2 1 1 1 1 1 2 2 3 3 4 4 5 5 5 5 5 6 6 6 6 6 5 5 5
Wind_Direction
297 276 255 246 237 231 239 239 248 163 64 25 13 3 28 25 36 101 123 103 110 124 132 136 135 134 131 130 129 127 124 123 120 115 113 112 112 109 106 104 101 100 99 97 95 93 91 90 89
290 274 250 235 234 230 231 223 233 216 85 52 17 4 44 63 66 100 110 109 117 123 132 136 136 135 134 131 130 130 128 125 122 119 116 112 111 109 108 106 104 103 100 98 97 93 91 91 90
275 263 243 228 231 231 224 175 157 118 91 75 57 22 30 62 81 96 105 118 117 118 126 133 137 136 135 134 131 131 130 128 125 123 120 116 113 110 107 107 106 104 102 99 96 93 91 91 90
264 234 240 238 237 234 242 198 85 127 102 77 57 88 77 53 65 91 109 121 117 117 123 132 137 139 137 136 135 132 132 131 128 126 123 120 118 114 109 106 107 106 103 100 97 94 93 92 91
248 236 225 233 237 235 257 326 88 146 124 123 81 77 79 69 75 94 107 115 117 118 122 134 132 138 139 138 137 134 133 134 133 130 127 123 120 117 112 110 109 108 106 104 101 97 95 92 90
239 237 226 227 227 222 232 241 278 71 115 113 79 91 105 93 80 101 108 111 113 116 121 134 135 134 140 143 142 139 137 137 136 133 129 125 123 120 117 115 112 110 109 108 106 102 97 94 91
254 242 239 239 228 217 224 255 179 302 179 113 18 47 120 91 86 107 109 114 113 116 124 133 137 138 137 144 146 145 143 139 137 135 131 128 127 125 121 119 116 112 110 111 111 108 102 99 95
290 279 246 240 234 222 204 245 25 2 327 24 27 89 126 99 97 100 97 104 109 116 127 137 141 141 143 143 147 149 147 143 140 138 136 134 133 130 126 121 118 115 113 112 113 112 110 106 103
291 251 241 238 238 220 162 234 357 331 15 20 38 53 95 114 113 105 101 102 108 119 129 144 143 143 143 146 147 147 148 147 143 141 141 142 144 137 128 123 122 121 118 114 114 116 115 115 114
237 237 241 260 306 321 311 328 332 277 309 3 59 69 97 118 126 135 137 138 135 141 146 148 142 145 144 147 149 152 155 155 157 155 157 161 148 136 130 128 127 127 124 122 121 123 129 130 135
224 248 266 304 334 336 322 308 297 238 263 260 140 137 139 151 153 157 158 162 157 155 149 153 143 141 142 142 155 157 157 165 168 161 166 159 139 132 133 135 135 136 135 134 135 144 155 145 134
238 265 278 303 324 318 308 302 292 244 257 329 74 131 150 182 183 184 175 165 163 153 152 157 149 148 145 147 155 156 155 165 164 164 168 153 138 139 141 146 151 155 150 147 155 164 153 135 131
235 254 271 281 288 294 298 289 285 272 235 196 159 165 177 199 211 213 190 173 154 162 168 169 163 160 151 144 165 164 158 159 157 155 162 152 140 143 140 145 149 150 146 151 160 140 118 104 101
236 254 290 282 274 279 286 283 268 276 219 170 179 179 182 189 217 224 209 213 181 176 183 179 169 164 157 161 173 170 159 150 149 157 159 153 148 140 142 138 138 138 146 151 141 129 114 101 96
245 239 264 251 249 249 274 276 242 253 238 203 191 188 179 186 201 222 230 229 206 185 181 182 177 167 168 169 176 175 164 156 149 161 163 155 150 145 143 140 136 140 144 137 129 123 116 112 105
233 229 228 220 222 227 232 253 252 237 207 206 205 208 179 182 180 220 269 261 244 181 174 174 187 174 172 176 181 175 168 159 153 157 162 158 152 153 145 141 141 142 137 129 120 128 121 119 120
216 226 225 225 218 229 232 256 262 229 214 225 218 193 165 261 306 332 318 298 301 154 165 178 193 184 180 173 170 170 164 157 156 155 164 163 157 157 150 144 144 146 137 132 142 136 133 130 121
232 239 242 249 238 249 253 262 281 258 200 271 252 186 176 221 270 310 279 276 238 163 142 150 202 194 181 169 165 167 169 160 152 151 159 159 158 158 152 145 149 149 144 152 153 148 142 139 142
255 265 264 271 296 291 252 260 266 258 189 240 273 262 237 236 263 329 289 291 30 91 125 168 214 209 177 168 176 182 192 184 169 161 162 161 157 156 149 149 152 151 157 162 157 147 142 145 140
254 258 269 282 292 281 263 268 264 240 219 216 245 273 275 257 257 311 330 353 339 154 171 182 207 214 204 187 188 191 192 189 180 167 170 167 159 156 156 152 158 157 158 162 165 152 152 166 162
262 243 253 279 307 270 265 273 245 224 220 219 243 267 292 285 306 329 319 306 291 245 190 213 218 216 214 200 174 175 173 168 179 179 179 170 162 159 156 157 156 160 163 172 176 171 163 174 190
266 280 283 268 289 272 249 273 246 209 220 222 227 260 266 278 307 311 284 263 274 257 209 195 211 225 218 201 181 182 184 188 193 176 170 166 160 157 157 158 159 163 166 173 182 173 168 163 183
274 293 274 262 250 270 244 250 256 184 220 218 214 247 272 268 273 286 284 259 273 269 216 202 207 218 225 207 200 196 193 192 167 159 158 173 169 164 159 157 157 165 168 172 176 173 173 173 177
282 287 263 250 241 254 231 223 261 200 221 204 274 292 316 327 315 296 291 287 288 298 243 219 218 222 218 213 204 202 197 186 168 167 169 175 181 176 169 163 161 166 167 169 175 180 176 180 180
307 329 322 234 211 241 227 224 236 72 50 63 331 329 336 330 325 322 317 311 306 311 280 247 240 244 230 215 206 204 202 193 182 176 177 175 182 187 180 172 171 168 168 166 167 171 177 179 177
300 314 204 255 256 285 274 234 209 72 45 38 31 25 14 359 346 333 324 313 308 299 279 246 240 237 231 220 212 201 192 192 192 184 178 177 180 187 179 171 172 173 168 165 165 166 175 178 178
327 294 292 292 284 265 248 221 195 45 39 24 17 18 8 1 356 346 334 330 327 308 279 259 244 238 231 224 212 198 194 196 196 186 167 168 169 168 163 171 171 173 168 165 161 165 172 171 177
308 315 313 272 287 274 260 243 230 25 3 4 3 4 1 356 352 345 337 331 325 316 307 292 266 233 225 218 213 206 200 201 192 180 161 158 160 157 154 166 171 168 167 163 160 161 166 163 168
218 247 272 268 264 261 269 274 42 66 39 4 356 354 352 349 343 338 333 329 328 328 321 312 285 271 239 227 221 197 192 198 181 170 165 159 153 152 158 163 168 169 168 166 167 174 171 168 168
241 240 210 237 275 276 280 271 30 46 27 15 3 351 348 351 341 335 334 333 336 338 334 326 319 301 290 273 237 194 189 184 176 168 166 155 157 160 161 165 164 173 169 167 170 176 171 171 175
Height
1499 1501 1503 1506 1508 1507 1502 1490 1483 1484 1484 1486 1486 1487 1489 1493 1498 1509 1509 1507 1507 1509 1511 1513 1516 1518 1520 1522 1524 1525 1527 1528 1530 1531 1532 1533 1534 1535 1536 1537 1538 1539 1540 1541 1542 1542 1543 1544 1544
1499 1501 1505 1505 1505 1507 1497 1487 1486 1484 1486 1487 1488 1489 1491 1496 1500 1504 1506 1507 1508 1509 1511 1514 1516 1518 1520 1522 1524 1526 1527 1529 1530 1532 1533 1534 1535 1537 1538 1538 1539 1540 1541 1542 1543 1544 1544 1545 1546
1498 1501 1504 1501 1499 1498 1491 1484 1484 1484 1486 1488 1490 1492 1495 1500 1503 1504 1506 1507 1508 1509 1512 1514 1516 1519 1521 1523 1525 1526 1528 1530 1531 1532 1534 1535 1536 1537 1538 1539 1540 1541 1542 1543 1544 1545 1546 1547 1547
1499 1501 1501 1499 1495 1488 1485 1483 1483 1485 1487 1489 1492 1495 1498 1503 1504 1505 1506 1508 1509 1510 1512 1514 1517 1519 1521 1523 1525 1527 1528 1530 1532 1533 1534 1536 1537 1538 1539 1540 1541 1542 1543 1544 1545 1546 1547 1548 1549
1499 1499 1498 1496 1490 1485 1483 1483 1483 1485 1487 1490 1493 1496 1500 1503 1503 1504 1506 1508 1509 1510 1512 1515 1517 1519 1522 1523 1525 1527 1529 1530 1532 1534 1535 1536 1538 1539 1540 1541 1542 1543 1544 1545 1546 1547 1548 1549 1550
1498 1495 1496 1493 1487 1483 1483 1484 1485 1486 1488 1491 1494 1497 1501 1503 1503 1505 1507 1509 1510 1511 1512 1515 1517 1519 1521 1524 1525 1527 1529 1530 1532 1534 1535 1537 1538 1539 1541 1541 1542 1543 1544 1545 1546 1547 1548 1549 1550
1497 1494 1491 1486 1484 1484 1484 1484 1486 1487 1489 1492 1494 1497 1500 1502 1503 1505 1507 1509 1510 1511 1513 1514 1517 1519 1521 1523 1525 1527 1529 1531 1532 1534 1535 1537 1538 1540 1541 1542 1543 1544 1545 1546 1547 1548 1549 1550 1551
1494 1494 1489 1485 1484 1485 1485 1485 1487 1489 1490 1493 1494 1496 1500 1501 1503 1505 1506 1508 1510 1511 1513 1514 1517 1519 1521 1523 1525 1527 1529 1531 1532 1534 1536 1537 1539 1540 1541 1542 1544 1544 1545 1546 1547 1548 1549 1551 1552
1494 1496 1490 1485 1484 1485 1484 1486 1488 1489 1491 1493 1494 1496 1499 1501 1502 1504 1506 1507 1509 1511 1512 1514 1516 1518 1520 1522 1524 1527 1528 1530 1532 1534 1535 1537 1538 1540 1541 1543 1544 1545 1546 1547 1548 1549 1550 1551 1552
1494 1494 1488 1485 1484 1485 1485 1486 1488 1489 1491 1493 1495 1496 1498 1499 1501 1503 1504 1506 1508 1510 1511 1513 1515 1517 1519 1521 1523 1526 1527 1529 1531 1533 1535 1537 1538 1540 1541 1543 1544 1545 1546 1547 1548 1549 1550 1551 1552
1493 1491 1488 1487 1487 1487 1487 1487 1488 1490 1492 1494 1495 1496 1498 1499 1501 1502 1504 1506 1507 1509 1510 1512 1514 1516 1518 1520 1522 1524 1526 1528 1530 1533 1534 1536 1538 1539 1541 1542 1543 1544 1545 1546 1548 1549 1550 1551 1552
1492 1491 1490 1490 1489 1489 1489 1488 1489 1490 1492 1494 1494 1495 1497 1499 1499 1501 1503 1504 1506 1508 1509 1510 1513 1515 1517 1519 1521 1523 1525 1527 1529 1531 1533 1535 1537 1538 1540 1541 1542 1544 1545 1546 1547 1548 1550 1551 1552
1491 1491 1491 1491 1490 1490 1489 1489 1489 1489 1491 1493 1493 1495 1496 1498 1499 1500 1501 1503 1505 1506 1508 1509 1511 1513 1515 1517 1519 1521 1523 1526 1528 1529 1531 1533 1535 1537 1538 1540 1541 1543 1544 1545 1546 1548 1549 1550 1551
1491 1491 1491 1491 1490 1490 1489 1488 1489 1488 1490 1491 1492 1493 1495 1496 1498 1498 1499 1501 1503 1504 1506 1507 1509 1511 1513 1515 1517 1519 1521 1523 1525 1527 1529 1531 1533 1535 1536 1538 1540 1541 1543 1544 1546 1547 1548 1549 1550
1491 1491 1491 1489 1489 1489 1489 1488 1487 1488 1488 1489 1491 1492 1493 1495 1496 1497 1498 1499 1501 1502 1504 1505 1507 1509 1511 1512 1515 1517 1519 1521 1523 1525 1527 1529 1531 1532 1534 1536 1538 1539 1541 1543 1544 1545 1547 1548 1548
1490 1491 1492 1488 1487 1487 1491 1491 1486 1486 1486 1487 1489 1491 1492 1493 1494 1495 1496 1497 1498 1499 1501 1502 1504 1506 1508 1510 1512 1514 1516 1518 1520 1522 1525 1526 1528 1530 1532 1534 1535 1538 1539 1541 1542 1544 1545 1546 1547
1490 1491 1490 1488 1485 1485 1488 1488 1485 1485 1485 1486 1487 1488 1490 1491 1492 1493 1494 1495 1495 1496 1498 1499 1501 1503 1505 1507 1509 1511 1513 1515 1517 1519 1521 1523 1525 1528 1530 1531 1533 1535 1537 1539 1540 1542 1543 1544 1545
1493 1491 1488 1487 1484 1485 1488 1487 1484 1484 1484 1485 1486 1487 1488 1489 1490 1491 1491 1492 1493 1494 1495 1496 1498 1500 1502 1504 1506 1508 1510 1512 1514 1516 1518 1520 1522 1525 1527 1529 1531 1533 1534 1536 1538 1539 1541 1542 1543
1491 1491 1490 1488 1485 1487 1487 1486 1484 1483 1484 1485 1486 1486 1486 1487 1488 1488 1489 1490 1490 1491 1492 1493 1495 1497 1498 1500 1501 1503 1506 1508 1510 1512 1515 1516 1519 1521 1523 1525 1528 1530 1532 1533 1535 1537 1538 1539 1541
1490 1492 1491 1487 1485 1487 1487 1485 1481 1481 1482 1484 1485 1485 1485 1485 1485 1486 1486 1487 1487 1488 1489 1490 1491 1493 1495 1496 1498 1500 1503 1505 1507 1509 1511 1513 1515 1518 1520 1522 1524 1526 1528 1530 1532 1533 1535 1537 1538
1490 1492 1491 1491 1488 1486 1488 1485 1480 1479 1480 1481 1483 1483 1483 1483 1483 1483 1484 1484 1485 1485 1486 1487 1488 1489 1491 1493 1495 1497 1499 1501 1503 1504 1506 1509 1511 1513 1516 1518 1520 1522 1525 1526 1528 1530 1531 1533 1535
1492 1489 1489 1489 1493 1493 1489 1492 1480 1477 1478 1479 1480 1481 1481 1481 1481 1482 1482 1482 1482 1483 1483 1484 1485 1486 1488 1489 1491 1493 1494 1496 1498 1499 1502 1505 1507 1509 1512 1514 1517 1519 1521 1523 1524 1526 1528 1529 1530
1491 1489 1490 1490 1492 1494 1489 1493 1481 1475 1477 1477 1478 1479 1480 1480 1480 1480 1480 1480 1480 1480 1480 1481 1481 1482 1484 1485 1487 1489 1490 1492 1494 1497 1499 1501 1503 1506 1508 1510 1512 1515 1517 1519 1521 1523 1524 1525 1527
1490 1490 1489 1489 1492 1498 1485 1488 1481 1476 1474 1475 1476 1477 1478 1478 1478 1478 1478 1478 1477 1477 1477 1477 1478 1479 1480 1481 1483 1484 1486 1488 1490 1492 1495 1497 1499 1502 1504 1505 1508 1510 1513 1515 1517 1518 1520 1521 1523
1492 1496 1499 1498 1499 1492 1477 1480 1479 1474 1473 1473 1474 1475 1475 1476 1476 1475 1475 1474 1473 1473 1474 1474 1474 1475 1476 1478 1479 1481 1482 1484 1486 1488 1490 1492 1495 1497 1499 1501 1503 1506 1509 1511 1513 1514 1516 1517 1518
1495 1497 1504 1505 1498 1488 1479 1481 1477 1474 1473 1473 1474 1474 1474 1474 1473 1473 1472 1471 1471 1471 1470 1470 1471 1472 1473 1474 1475 1477 1479 1480 1482 1484 1486 1488 1491 1493 1495 1497 1500 1502 1504 1507 1508 1510 1512 1513 1515
1497 1499 1498 1501 1496 1496 1486 1477 1476 1474 1475 1475 1475 1474 1474 1473 1472 1471 1470 1469 1468 1468 1468 1467 1468 1468 1469 1470 1471 1473 1475 1477 1478 1480 1482 1484 1487 1489 1491 1493 1495 1498 1500 1502 1504 1505 1507 1509 1510
1498 1498 1500 1502 1502 1496 1485 1477 1479 1479 1478 1477 1477 1475 1475 1473 1471 1470 1469 1467 1466 1466 1465 1465 1464 1465 1466 1467 1468 1469 1471 1472 1474 1476 1477 1480 1483 1485 1487 1489 1491 1493 1495 1497 1499 1501 1503 1505 1506
1500 1501 1500 1500 1499 1499 1493 1487 1477 1477 1477 1478 1477 1477 1475 1473 1471 1469 1467 1465 1464 1463 1462 1461 1461 1461 1462 1463 1464 1465 1467 1468 1470 1471 1473 1476 1478 1481 1483 1485 1486 1488 1490 1493 1495 1497 1499 1501 1502
1499 1499 1502 1506 1503 1496 1495 1491 1478 1477 1476 1477 1477 1476 1474 1472 1470 1468 1466 1464 1462 1460 1459 1459 1458 1458 1458 1459 1460 1461 1462 1464 1466 1467 1469 1471 1474 1476 1478 1481 1482 1484 1486 1489 1491 1493 1494 1496 1497